Clearfield, PA

1:07 AM EDT on August 23, 2017 (GMT -0400)
Clearfield-Lawrence

Weather History for KFIG - October, 2013

Change the Weather History Date:

Sunday, October 6, 2013

  Actual Average (KDUJ) Record (KDUJ)
Temperature  
Mean Temperature 72 °F -  
Max Temperature 84 °F 60 °F 84 °F (2007)
Min Temperature 60 °F 41 °F 25 °F (1965)
Cooling Degree Days 7    
Growing Degree Days 22 (Base 50)    
Moisture  
Dew Point 62 °F    
Average Humidity 86    
Maximum Humidity 100    
Minimum Humidity 40    
Precipitation  
Precipitation 0.01 in - - ()
Sea Level Pressure  
Sea Level Pressure 29.96 in    
Wind  
Wind Speed 2 mph (NE)    
Max Wind Speed 12 mph    
Max Gust Speed 22 mph    
Visibility 4 miles    
Events Fog    
Averages and records for this station are not official NWS values.
T = Trace of Precipitation, MM = Missing Value Source: NWS Daily Summary

Daily Weather History Graph

Daily Weather History Graph

Search for Another Location

Airport or City:

Trip Planner

Search our weather history database for the weather conditions in past years. The results will help you decide how hot, cold, wet, or windy it might be!

Date:

Astronomy

Oct. 06, 2013 Rise Set
Actual Time 7:15 AM EDT 6:46 PM EDT
Civil Twilight 6:48 AM EDT 7:14 PM EDT
Nautical Twilight 6:16 AM EDT 7:46 PM EDT
Astronomical Twilight 5:44 AM EDT 8:18 PM EDT
Moon 8:59 AM EDT (10/6) 7:43 PM EDT (10/6)
Length of Visible Light 12h 26m
Length of Day
11h 31m
Waxing Crescent, 3% of the Moon is Illuminated
Oct 6
Waxing Crescent
Oct 11
First Quarter
Oct 18
Full
Oct 26
Last Quarter
Nov 3
New

Hourly Weather History & Observations

Time (EDT) Temp. Heat Index Dew Point Humidity Pressure Visibility Wind Dir Wind Speed Gust Speed Precip Events Conditions
12:21 AM 64.4 °F - 64.4 °F 100% 30.04 in 0.2 mi Calm Calm - N/A Fog Fog
12:27 AM 64.4 °F - 64.4 °F 100% 30.04 in 0.5 mi North 3.5 mph - N/A Fog Fog
12:34 AM 64.4 °F - 64.4 °F 100% 30.04 in 0.2 mi NNE 3.5 mph - N/A Fog Fog
12:54 AM 63.0 °F - 63.0 °F 100% 30.01 in 0.2 mi North 3.5 mph - N/A Fog Fog
1:54 AM 63.0 °F - 63.0 °F 100% 30.01 in 0.2 mi North 4.6 mph - N/A Fog Fog
2:54 AM 63.0 °F - 63.0 °F 100% 30.00 in 0.2 mi Calm Calm - N/A Fog Fog
3:54 AM 62.1 °F - 62.1 °F 100% 29.99 in 0.8 mi Calm Calm - N/A   Mostly Cloudy
4:05 AM 62.6 °F - 62.6 °F 100% 30.01 in 0.5 mi North 3.5 mph - N/A Fog Fog
4:16 AM 62.6 °F - 62.6 °F 100% 30.01 in 0.2 mi Calm Calm - N/A Fog Fog
4:18 AM 62.6 °F - 62.6 °F 100% 30.01 in 0.5 mi Calm Calm - N/A Fog Fog
4:30 AM 62.6 °F - 62.6 °F 100% 30.01 in 1.0 mi Calm Calm - N/A   Mist
4:46 AM 62.6 °F - 62.6 °F 100% 30.01 in 1.2 mi Calm Calm - N/A   Mostly Cloudy
4:52 AM 62.6 °F - 62.6 °F 100% 30.01 in 0.8 mi Calm Calm - N/A   Mostly Cloudy
4:54 AM 62.1 °F - 62.1 °F 100% 29.99 in 0.5 mi Calm Calm - N/A Fog Fog
5:26 AM 60.8 °F - 60.8 °F 100% 30.01 in 0.2 mi Calm Calm - N/A Fog Fog
5:36 AM 60.8 °F - 60.8 °F 100% 30.01 in 0.2 mi North 4.6 mph - N/A Fog Fog
5:54 AM 61.0 °F - 61.0 °F 100% 29.99 in 0.2 mi North 3.5 mph - N/A Fog Fog
6:02 AM 60.8 °F - 60.8 °F 100% 30.00 in 0.5 mi NNE 3.5 mph - N/A Fog Fog
6:18 AM 60.8 °F - 60.8 °F 100% 30.01 in 0.2 mi Calm Calm - N/A Fog Fog
6:54 AM 62.1 °F - 62.1 °F 100% 29.99 in 0.2 mi North 3.5 mph - 0.01 in Fog Fog
7:54 AM 62.1 °F - 62.1 °F 100% 29.99 in 0.2 mi NNE 3.5 mph - N/A Fog Fog
8:16 AM 62.6 °F - 62.6 °F 100% 30.01 in 0.8 mi North 3.5 mph - N/A   Overcast
8:46 AM 62.6 °F - 62.6 °F 100% 30.01 in 1.0 mi Calm Calm - N/A   Overcast
8:54 AM 63.0 °F - 63.0 °F 100% 30.00 in 1.5 mi Calm Calm - N/A   Mostly Cloudy
9:04 AM 64.4 °F - 64.4 °F 100% 30.02 in 2.0 mi Calm Calm - N/A   Mostly Cloudy
9:12 AM 64.4 °F - 64.4 °F 100% 30.01 in 2.0 mi Calm Calm - N/A   Scattered Clouds
9:44 AM 64.4 °F - 64.4 °F 100% 30.01 in 3.0 mi Calm Calm - N/A   Partly Cloudy
9:54 AM 66.0 °F - 66.0 °F 100% 29.99 in 4.0 mi NE 3.5 mph - N/A   Clear
10:54 AM 70.0 °F - 66.0 °F 87% 29.98 in 10.0 mi Calm Calm - N/A   Partly Cloudy
11:54 AM 77.0 °F - 66.0 °F 69% 29.96 in 10.0 mi South 5.8 mph - N/A   Partly Cloudy
12:54 PM 81.0 °F 82.7 °F 64.9 °F 58% 29.94 in 10.0 mi Variable 4.6 mph - N/A   Scattered Clouds
1:54 PM 80.1 °F 81.5 °F 63.0 °F 56% 29.90 in 10.0 mi SSW 6.9 mph 17.3 mph N/A   Mostly Cloudy
2:54 PM 84.0 °F 84.4 °F 61.0 °F 46% 29.88 in 10.0 mi Variable 6.9 mph 21.9 mph N/A   Clear
3:54 PM 84.9 °F 84.2 °F 57.9 °F 40% 29.86 in 10.0 mi South 11.5 mph 20.7 mph N/A   Clear
4:54 PM 81.0 °F 80.8 °F 55.9 °F 42% 29.84 in 10.0 mi South 8.1 mph 17.3 mph N/A   Scattered Clouds
5:54 PM 81.0 °F 80.8 °F 55.9 °F 42% 29.84 in 10.0 mi South 6.9 mph 16.1 mph N/A   Scattered Clouds
6:54 PM 79.0 °F - 57.9 °F 48% 29.84 in 10.0 mi Variable 4.6 mph - N/A   Overcast
7:54 PM 77.0 °F - 59.0 °F 54% 29.85 in 10.0 mi SSE 8.1 mph - N/A   Clear
8:54 PM 75.0 °F - 59.0 °F 57% 29.85 in 10.0 mi SSE 6.9 mph - N/A   Mostly Cloudy
9:54 PM 73.9 °F - 59.0 °F 59% 29.85 in 10.0 mi Variable 6.9 mph 17.3 mph N/A   Clear
10:54 PM 72.0 °F - 60.1 °F 66% 29.84 in 10.0 mi South 6.9 mph 19.6 mph N/A   Clear
11:54 PM 71.1 °F - 60.1 °F 68% 29.83 in 10.0 mi Variable 6.9 mph - N/A   Clear